#timestamp,LO_Frequency,Hit,StdDev 
1710068415.4,286047001.8,N
1710068435.2,286047001.6,N
1710068455.0,286047002.1,N
1710068455.9,286047002.1,N
1710068475.8,286047002.1,N
1710068495.6,286047002.3,N
1710068515.4,286047000.1,N
1710068535.3,286047002.6,N
1710068555.1,286047001.6,N
1710068575.9,286047000.4,N
1710068595.7,286047000.3,N
1710068615.5,286047000.3,N
1710068635.4,286046999.9,N
1710068655.2,286047000.7,N
1710068675.0,286047002.0,N
1710068675.9,286047002.0,N
1710068695.8,286047001.9,N
1710068715.6,286047002.2,N
1710068735.5,286047001.7,N
1710068755.3,286047004.3,Y
1710068775.1,286047002.5,P
1710068795.9,286047002.5,P
1710068815.7,286047002.3,P
1710068835.5,286047002.3,Y
1710068855.4,286046999.2,P
1710068875.2,286046996.7,N
1710068895.1,286046999.2,N
1710068896.0,286046999.2,N
1710068915.8,286046999.6,N
1710068935.6,286046996.7,N
1710068955.5,286046999.1,N
1710068975.3,286046999.0,N
1710068995.1,286046997.1,N
1710069015.9,286046996.5,N
1710069035.7,286046996.9,N
1710069055.6,286046997.2,N
1710069075.4,286046999.4,N
1710069095.2,286046996.9,N
1710069115.1,286046996.5,N
1710069116.0,286046996.5,N
1710069135.8,286046999.6,N
1710069155.6,286046997.7,N
1710069175.5,286046994.9,Y
1710069195.3,286046998.5,P
1710069215.2,286046998.5,P
1710069235.9,286046998.8,P
1710069255.7,286046999.3,Y
1710069275.6,286047000.0,P
1710069295.4,286047002.3,P
1710069315.3,286047000.5,N
1710069335.1,286047001.0,N
1710069336.0,286047001.0,N
1710069355.8,286047000.3,N
1710069375.7,286046998.1,N
1710069395.5,286047000.8,N
1710069415.3,286047001.0,N
1710069435.2,286047000.5,N
1710069455.0,286047001.6,N
1710069455.9,286047001.6,N
1710069475.8,286047001.6,N
1710069495.6,286047002.5,N
1710069515.4,286047001.5,N
1710069535.3,286047001.5,N
1710069555.1,286047001.7,N
1710069575.9,286047004.0,Y
1710069595.7,286047002.6,P
1710069615.5,286047004.1,P
1710069635.4,286047004.2,P
1710069655.2,286047003.4,N
1710069675.1,286047003.1,N
1710069676.0,286047003.1,N
1710069695.8,286047003.1,N
1710069715.6,286047003.7,Y
1710069735.5,286047001.0,P
1710069755.3,286047000.9,N
1710069775.2,286046998.7,N
1710069795.9,286046998.3,N
1710069815.7,286047000.7,N
1710069835.6,286047001.2,N
1710069855.4,286047000.5,N
1710069875.2,286047000.3,N
1710069895.1,286047000.3,N
1710069896.0,286047000.3,N
1710069915.8,286047000.3,N
1710069935.7,286046999.9,N
1710069955.5,286047001.2,N
1710069975.3,286047001.2,N
1710069995.2,286046998.9,N
1710070015.0,286046998.8,N
1710070015.9,286046998.8,N
1710070035.8,286046998.1,N
1710070055.6,286047000.0,N
1710070075.4,286047002.3,N
1710070095.3,286046999.7,N
1710070115.1,286046999.7,N
1710070135.9,286047000.6,N
1710070155.7,286047000.6,N
1710070175.5,286047000.6,N
1710070195.4,286046998.4,N
1710070215.2,286046998.6,N
1710070235.0,286046998.9,N
1710070235.9,286046998.9,N
1710070255.8,286046996.9,N
1710070275.6,286046996.6,N
1710070295.5,286046997.6,N
1710070315.3,286046996.9,N
1710070335.1,286046996.6,N
1710070355.9,286046996.6,N
1710070375.7,286046999.6,N
1710070395.6,286046996.5,N
1710070415.4,286046996.6,N
1710070435.2,286046998.8,N
1710070455.1,286046998.4,N
1710070456.0,286046998.4,N
1710070475.8,286047001.1,N
1710070495.7,286047000.9,N
1710070515.5,286046998.6,N
1710070535.3,286046998.7,N
1710070555.2,286046998.7,N
1710070575.0,286047001.1,N
1710070575.9,286047001.1,N
1710070595.7,286046998.4,N
1710070615.6,286046998.2,N
1710070635.4,286046998.5,N
1710070655.3,286046999.1,N
1710070675.1,286046999.3,N
1710070695.8,286046999.4,N
1710070715.7,286046999.3,N
1710070735.5,286047000.9,N
1710070755.4,286047000.9,N
1710070775.2,286046998.6,N
1710070795.1,286046999.9,N
1710070796.0,286046999.9,N
1710070815.8,286047001.0,N
1710070835.6,286047000.5,N
1710070855.5,286046998.6,N
1710070875.3,286046999.0,N
1710070895.1,286046998.4,N
1710070915.9,286046998.9,N
1710070935.7,286046998.7,N
1710070955.6,286046996.6,Y
1710070975.4,286046999.0,P
1710070995.2,286046998.8,P
1710071015.1,286046999.0,P
1710071016.0,286046999.0,Y
1710071035.8,286047002.8,P
1710071055.7,286047000.2,N
1710071075.5,286047000.2,N
1710071095.3,286046999.8,N
1710071115.2,286047002.8,N
1710071135.9,286047001.2,N
1710071155.7,286046998.4,N
1710071175.0,286046998.3,N
1710071175.9,286046998.3,N
1710071195.8,286046998.1,N
1710071215.6,286046998.2,N
1710071235.5,286046998.4,N
1710071255.3,286047001.1,N
1710071275.1,286047000.8,N
1710071295.9,286047000.7,N
1710071315.7,286046998.1,N
1710071335.5,286046998.1,N
1710071355.4,286047000.3,N
1710071375.2,286047000.4,N
1710071395.1,286046999.9,N
1710071396.0,286046999.9,N
1710071415.8,286046999.7,N
1710071435.6,286047000.0,N
1710071455.5,286047001.0,N
1710071475.3,286046999.9,N
1710071495.1,286047000.4,N
1710071515.9,286047000.9,N
1710071535.7,286046999.9,N
1710071555.6,286047002.2,N
1710071575.4,286047001.6,N
1710071595.2,286047002.2,N
1710071615.1,286047001.9,N
1710071616.0,286047001.9,N
1710071635.8,286046999.8,N
1710071655.6,286047002.7,N
1710071675.5,286047000.5,N
1710071695.3,286047000.3,N
1710071715.2,286046999.9,N
1710071735.9,286047001.0,N
1710071755.7,286047002.8,N
1710071775.6,286046999.8,N
1710071795.4,286047002.3,N
1710071815.2,286047000.1,N
1710071835.1,286047002.5,N
1710071836.0,286047002.5,N
1710071855.8,286046998.2,N
1710071875.7,286046998.4,N
1710071895.5,286046998.6,N
1710071915.3,286046998.5,N
1710071935.2,286046996.5,N
1710071955.0,286046999.1,N
1710071955.9,286046999.1,N
1710071975.8,286046998.4,N
1710071995.6,286046999.6,N
